Wichita Jabara, KS

1:21 AM CDT on March 25, 2017 (GMT -0500)
Col Jabara

Weather History for KAAO - March, 2013

Change the Weather History Date:

Wednesday, March 20, 2013

  Actual Average (KIAB) Record (KIAB)
Temperature  
Mean Temperature 37 °F -  
Max Temperature 46 °F 57 °F 89 °F (2017)
Min Temperature 28 °F 36 °F 28 °F (2016)
Degree Days  
Heating Degree Days 28    
Moisture  
Dew Point 19 °F    
Average Humidity 53    
Maximum Humidity 92    
Minimum Humidity 27    
Precipitation  
Precipitation 0.00 in - - ()
Sea Level Pressure  
Sea Level Pressure 30.29 in    
Wind  
Wind Speed 7 mph (NNE)    
Max Wind Speed 16 mph    
Max Gust Speed 21 mph    
Visibility 10 miles    
Events      
Averages and records for this station are not official NWS values.
T = Trace of Precipitation, MM = Missing Value Source: NWS Daily Summary

Daily Weather History Graph

Daily Weather History Graph

Search for Another Location

Airport or City:

Trip Planner

Search our weather history database for the weather conditions in past years. The results will help you decide how hot, cold, wet, or windy it might be!

Date:

Astronomy

Mar. 20, 2013 Rise Set
Actual Time 7:31 AM CDT 7:41 PM CDT
Civil Twilight 7:05 AM CDT 8:07 PM CDT
Nautical Twilight 6:35 AM CDT 8:37 PM CDT
Astronomical Twilight 6:04 AM CDT 9:08 PM CDT
Moon 1:23 PM CDT (3/20) 3:06 AM CDT (3/20)
Length of Visible Light 13h 01m
Length of Day
12h 09m
First Quarter, 59% of the Moon is Illuminated
Mar 20
First Quarter
Mar 27
Full
Apr 2
Last Quarter
Apr 10
New
Apr 18
First Quarter

Hourly Weather History & Observations

Time (CDT) Temp. Windchill Dew Point Humidity Pressure Visibility Wind Dir Wind Speed Gust Speed Precip Events Conditions
12:54 AM 32.0 °F 25.6 °F 28.9 °F 88% 30.29 in 10.0 mi South 6.9 mph - N/A   Clear
1:54 AM 30.9 °F - 28.9 °F 92% 30.32 in 10.0 mi Calm Calm - N/A   Clear
2:54 AM 30.0 °F 24.1 °F 28.0 °F 92% 30.33 in 10.0 mi NW 5.8 mph - N/A   Clear
3:54 AM 32.0 °F 24.8 °F 28.9 °F 88% 30.32 in 10.0 mi WNW 8.1 mph - N/A   Clear
4:54 AM 32.0 °F 24.8 °F 28.9 °F 88% 30.33 in 10.0 mi NW 8.1 mph - N/A   Mostly Cloudy
5:54 AM 33.1 °F 23.9 °F 28.9 °F 85% 30.36 in 10.0 mi North 12.7 mph - N/A   Clear
6:54 AM 32.0 °F 21.6 °F 24.1 °F 73% 30.40 in 10.0 mi NNE 15.0 mph - N/A   Scattered Clouds
7:54 AM 28.9 °F 18.2 °F 17.1 °F 61% 30.43 in 10.0 mi North 13.8 mph - N/A   Partly Cloudy
8:54 AM 30.9 °F 23.5 °F 21.0 °F 67% 30.45 in 10.0 mi North 8.1 mph - N/A   Scattered Clouds
9:54 AM 34.0 °F 23.8 °F 12.9 °F 42% 30.45 in 10.0 mi NNE 16.1 mph - N/A   Clear
10:54 AM 36.0 °F 28.0 °F 12.9 °F 39% 30.44 in 10.0 mi North 11.5 mph 19.6 mph N/A   Clear
11:54 AM 39.9 °F 32.1 °F 12.0 °F 32% 30.42 in 10.0 mi NE 13.8 mph 20.7 mph N/A   Clear
12:54 PM 42.1 °F 36.6 °F 12.0 °F 29% 30.40 in 10.0 mi North 9.2 mph 16.1 mph N/A   Clear
1:54 PM 43.0 °F 38.8 °F 12.0 °F 28% 30.36 in 10.0 mi North 6.9 mph - N/A   Clear
2:54 PM 45.0 °F 42.6 °F 12.9 °F 27% 30.31 in 10.0 mi WSW 4.6 mph - N/A   Clear
3:54 PM 46.9 °F - 14.0 °F 27% 30.25 in 10.0 mi Variable 5.8 mph - N/A   Clear
4:54 PM 46.9 °F - 15.1 °F 28% 30.22 in 10.0 mi Calm Calm - N/A   Clear
5:54 PM 46.9 °F - 16.0 °F 29% 30.18 in 10.0 mi Variable 3.5 mph - N/A   Clear
6:54 PM 44.1 °F - 16.0 °F 32% 30.17 in 10.0 mi Calm Calm - N/A   Clear
7:54 PM 39.9 °F 37.8 °F 17.1 °F 40% 30.15 in 10.0 mi East 3.5 mph - N/A   Clear
8:54 PM 37.9 °F 34.4 °F 18.0 °F 45% 30.13 in 10.0 mi East 4.6 mph - N/A   Clear
9:54 PM 37.0 °F 32.4 °F 19.0 °F 48% 30.11 in 10.0 mi ESE 5.8 mph - N/A   Clear
10:54 PM 37.9 °F 32.1 °F 18.0 °F 45% 30.08 in 10.0 mi ESE 8.1 mph - N/A   Clear
11:54 PM 37.0 °F 31.0 °F 18.0 °F 46% 30.05 in 10.0 mi ESE 8.1 mph - N/A   Clear